CES5701 ZLGM-ZUZH

Flight info

Callsign CES5701
Flight time N/A
Altitude 36100
Route RTOL Y1 MEPEP Y2 SANLI L888 UKDAB CEH
Aircraft B738/M-SDE2E3FGHIRWXY/LB1

Departure

Time 2026-04-19 09:37
Airport Golmud Airport (ZLGM)

Arrival

Time N/A
Airport Panzhihua Bao'anying Airport (ZUZH)
Time Latitude Longitude Altitude Speed Heading
2026-04-19 09:26 36.40334 94.79278 9346 ft 0 kts
2026-04-19 09:26 36.40274 94.79279 9347 ft 0 kts 267°
2026-04-19 09:31 36.40272 94.79235 9347 ft 15 kts 269°
2026-04-19 09:31 36.40272 94.79063 9345 ft 23 kts 271°
2026-04-19 09:31 36.40266 94.78891 9344 ft 20 kts 238°
2026-04-19 09:32 36.40162 94.78852 9346 ft 14 kts 211°
2026-04-19 09:32 36.40144 94.78774 9347 ft 7 kts 260°
2026-04-19 09:32 36.40141 94.78697 9348 ft 11 kts 268°
2026-04-19 09:32 36.40140 94.78591 9349 ft 16 kts 270°
2026-04-19 09:33 36.40140 94.78445 9349 ft 20 kts 271°
2026-04-19 09:33 36.40139 94.78264 9349 ft 25 kts 270°
2026-04-19 09:33 36.40138 94.78033 9348 ft 31 kts 268°
2026-04-19 09:33 36.40132 94.77748 9346 ft 34 kts 268°
2026-04-19 09:34 36.40129 94.77452 9344 ft 32 kts 271°
2026-04-19 09:34 36.40130 94.77304 9344 ft 31 kts 270°
2026-04-19 09:34 36.40125 94.77066 9343 ft 29 kts 269°
2026-04-19 09:34 36.40129 94.76846 9343 ft 27 kts 267°
2026-04-19 09:35 36.40123 94.76633 9342 ft 26 kts 270°
2026-04-19 09:35 36.40123 94.76428 9340 ft 27 kts 269°
2026-04-19 09:35 36.40110 94.76205 9339 ft 27 kts 263°
2026-04-19 09:35 36.40023 94.76078 9339 ft 20 kts 144°
2026-04-19 09:36 36.39984 94.76205 9341 ft 17 kts 95°
2026-04-19 09:36 36.39983 94.76359 9341 ft 23 kts 88°
2026-04-19 09:36 36.39991 94.76791 9345 ft 88 kts 89°
2026-04-19 09:36 36.39995 94.77720 9348 ft 147 kts 89°
2026-04-19 09:37 36.39999 94.79076 9361 ft 196 kts 90°
2026-04-19 09:37 36.39975 94.80723 9691 ft 218 kts 88°
2026-04-19 09:37 36.39953 94.82501 10418 ft 226 kts 87°
2026-04-19 09:37 36.39987 94.84390 10946 ft 245 kts 86°
2026-04-19 09:38 36.40047 94.86380 11512 ft 259 kts 83°
2026-04-19 09:38 36.40290 94.88551 12233 ft 267 kts 77°
2026-04-19 09:38 36.40641 94.90559 13000 ft 269 kts 75°
2026-04-19 09:38 36.41006 94.92638 13749 ft 273 kts 76°
2026-04-19 09:39 36.41347 94.94764 14458 ft 279 kts 77°
2026-04-19 09:39 36.41670 94.96919 15132 ft 284 kts 78°
2026-04-19 09:39 36.41991 94.99151 15810 ft 288 kts 78°
2026-04-19 09:39 36.42310 95.01402 16501 ft 292 kts 79°
2026-04-19 09:40 36.42633 95.03677 17160 ft 296 kts 79°
2026-04-19 09:40 36.42964 95.06007 17774 ft 303 kts 79°
2026-04-19 09:40 36.43301 95.08452 18371 ft 310 kts 80°
2026-04-19 09:40 36.43577 95.10936 18762 ft 325 kts 82°
2026-04-19 09:41 36.43814 95.13500 19117 ft 339 kts 83°
2026-04-19 09:41 36.44055 95.16251 19454 ft 355 kts 82°
2026-04-19 09:41 36.44304 95.19058 19807 ft 370 kts 82°
2026-04-19 09:41 36.44575 95.22058 20149 ft 385 kts 82°
2026-04-19 09:42 36.44861 95.25159 20527 ft 399 kts 82°
2026-04-19 09:42 36.45154 95.28307 20825 ft 415 kts 82°
2026-04-19 09:42 36.45462 95.31602 21108 ft 431 kts 82°
2026-04-19 09:42 36.45784 95.35038 21396 ft 446 kts 82°
2026-04-19 09:43 36.46118 95.38627 21879 ft 456 kts 82°
2026-04-19 09:43 36.46452 95.42231 22505 ft 462 kts 82°
2026-04-19 09:43 36.46785 95.45840 23137 ft 467 kts 82°
2026-04-19 09:43 36.47126 95.49555 23764 ft 474 kts 82°
2026-04-19 09:44 36.47477 95.53384 24433 ft 478 kts 82°
2026-04-19 09:44 36.47819 95.57130 24971 ft 485 kts 82°
2026-04-19 09:44 36.48167 95.60962 25611 ft 488 kts 81°
2026-04-19 09:44 36.48512 95.64772 26141 ft 495 kts 81°
2026-04-19 09:45 36.48857 95.68597 26915 ft 494 kts 82°
2026-04-19 09:45 36.49200 95.72421 27661 ft 493 kts 82°
2026-04-19 09:45 36.49537 95.76199 28370 ft 493 kts 82°
2026-04-19 09:45 36.49874 95.79990 29002 ft 494 kts 81°
2026-04-19 09:46 36.50214 95.83814 29693 ft 493 kts 81°
2026-04-19 09:46 36.50554 95.87650 30373 ft 492 kts 81°
2026-04-19 09:46 36.50889 95.91446 30941 ft 493 kts 81°
2026-04-19 09:46 36.51221 95.95220 31528 ft 493 kts 81°
2026-04-19 09:47 36.51555 95.99027 32125 ft 492 kts 81°
2026-04-19 09:47 36.51886 96.02803 32684 ft 492 kts 81°
2026-04-19 09:47 36.52217 96.06609 33271 ft 490 kts 81°
2026-04-19 09:47 36.52544 96.10377 33763 ft 491 kts 81°
2026-04-19 09:48 36.52869 96.14157 34339 ft 490 kts 81°
2026-04-19 09:48 36.53194 96.17922 34837 ft 490 kts 81°
2026-04-19 09:48 36.53518 96.21693 35339 ft 490 kts 81°
2026-04-19 09:48 36.53842 96.25473 35502 ft 496 kts 81°
2026-04-19 09:49 36.54166 96.29249 35504 ft 494 kts 81°
2026-04-19 09:49 36.54804 96.36768 35518 ft 490 kts 81°
2026-04-19 09:50 36.55439 96.44304 35489 ft 493 kts 81°
2026-04-19 09:50 36.56062 96.51862 35525 ft 490 kts 82°
2026-04-19 09:51 36.55929 96.59456 35526 ft 494 kts 100°
2026-04-19 09:51 36.55116 96.63120 35521 ft 496 kts 111°
2026-04-19 09:51 36.53962 96.66653 35519 ft 495 kts 116°
2026-04-19 09:52 36.51344 96.73474 35510 ft 491 kts 119°
2026-04-19 09:52 36.48586 96.80208 35503 ft 493 kts 119°
2026-04-19 09:53 36.45811 96.86968 35507 ft 495 kts 119°
2026-04-19 09:53 36.43073 96.93718 35534 ft 492 kts 119°
2026-04-19 09:54 36.40352 97.00497 35543 ft 494 kts 119°
2026-04-19 09:54 36.37645 97.07275 35554 ft 494 kts 118°
2026-04-19 09:55 36.34934 97.14074 35546 ft 492 kts 118°
2026-04-19 09:55 36.32254 97.20787 35537 ft 494 kts 118°
2026-04-19 09:56 36.29533 97.27594 35532 ft 493 kts 118°
2026-04-19 09:56 36.26839 97.34313 35573 ft 492 kts 118°
2026-04-19 09:57 36.24122 97.41079 35571 ft 491 kts 118°
2026-04-19 09:57 36.21417 97.47798 35561 ft 492 kts 118°
2026-04-19 09:58 36.18701 97.54471 35584 ft 491 kts 120°
2026-04-19 09:58 36.15311 97.60600 35563 ft 482 kts 139°
2026-04-19 09:58 36.13108 97.62936 35558 ft 474 kts 150°
2026-04-19 09:59 36.10583 97.64790 35534 ft 466 kts 161°
2026-04-19 09:59 36.05275 97.67391 35555 ft 456 kts 168°
2026-04-19 10:00 35.99892 97.69575 35561 ft 454 kts 170°
2026-04-19 10:00 35.94552 97.71646 35553 ft 454 kts 171°
2026-04-19 10:01 35.89159 97.73731 35559 ft 451 kts 170°
2026-04-19 10:01 35.83857 97.75796 35563 ft 454 kts 170°
2026-04-19 10:02 35.78554 97.77876 35543 ft 449 kts 170°
2026-04-19 10:02 35.73307 97.79942 35550 ft 453 kts 169°
2026-04-19 10:03 35.68053 97.82008 35573 ft 452 kts 169°
2026-04-19 10:03 35.62852 97.84059 35576 ft 450 kts 169°
2026-04-19 10:04 35.57612 97.86124 35582 ft 448 kts 169°
2026-04-19 10:04 35.52440 97.88156 35585 ft 450 kts 169°
2026-04-19 10:05 35.47198 97.90215 35599 ft 448 kts 169°
2026-04-19 10:05 35.42017 97.92245 35618 ft 447 kts 169°
2026-04-19 10:06 35.36794 97.94289 35633 ft 446 kts 169°
2026-04-19 10:06 35.31562 97.96333 35623 ft 447 kts 169°
2026-04-19 10:07 35.26315 97.98380 35640 ft 447 kts 169°
2026-04-19 10:07 35.21051 98.00432 35647 ft 447 kts 169°
2026-04-19 10:08 35.15775 98.02486 35665 ft 444 kts 169°
2026-04-19 10:08 35.10491 98.04538 35669 ft 448 kts 169°
2026-04-19 10:09 35.05195 98.06596 35682 ft 444 kts 169°
2026-04-19 10:09 34.99943 98.08635 35696 ft 443 kts 168°
2026-04-19 10:10 34.94638 98.10688 35693 ft 443 kts 168°
2026-04-19 10:10 34.89391 98.12717 35705 ft 440 kts 169°
2026-04-19 10:11 34.84126 98.14748 35711 ft 443 kts 168°
2026-04-19 10:11 34.78899 98.16764 35718 ft 440 kts 168°
2026-04-19 10:12 34.73726 98.18758 35723 ft 438 kts 168°
2026-04-19 10:12 34.68531 98.20753 35730 ft 441 kts 168°
2026-04-19 10:13 34.63382 98.22727 35732 ft 440 kts 168°
2026-04-19 10:13 34.58167 98.24730 35738 ft 439 kts 168°
2026-04-19 10:14 34.52970 98.26722 35738 ft 437 kts 168°
2026-04-19 10:14 34.47784 98.28706 35747 ft 437 kts 168°
2026-04-19 10:15 34.42647 98.30668 35752 ft 435 kts 168°
2026-04-19 10:15 34.37453 98.32649 35754 ft 436 kts 168°
2026-04-19 10:16 34.32321 98.34605 35759 ft 436 kts 168°
2026-04-19 10:16 34.27140 98.36576 35755 ft 435 kts 168°
2026-04-19 10:17 34.21975 98.38532 35753 ft 450 kts 168°
2026-04-19 10:17 34.16583 98.40563 35752 ft 466 kts 168°
2026-04-19 10:18 34.11161 98.42619 35753 ft 462 kts 167°
2026-04-19 10:18 34.05753 98.44675 35757 ft 462 kts 167°
2026-04-19 10:19 33.97736 98.47714 35758 ft 461 kts 167°
2026-04-19 10:19 33.92343 98.49757 35752 ft 462 kts 167°
2026-04-19 10:20 33.86946 98.51830 35748 ft 461 kts 167°
2026-04-19 10:20 33.81604 98.53895 35754 ft 465 kts 167°
2026-04-19 10:21 33.76208 98.55978 35743 ft 463 kts 166°
2026-04-19 10:21 33.70850 98.58041 35736 ft 463 kts 166°
2026-04-19 10:22 33.65462 98.60111 35744 ft 463 kts 166°
2026-04-19 10:22 33.60029 98.62193 35738 ft 465 kts 166°
2026-04-19 10:23 33.54615 98.64269 35746 ft 465 kts 166°
2026-04-19 10:23 33.49204 98.66337 35750 ft 464 kts 166°
2026-04-19 10:24 33.43788 98.68405 35754 ft 464 kts 166°
2026-04-19 10:24 33.38336 98.70486 35760 ft 463 kts 166°
2026-04-19 10:25 33.32861 98.72572 35771 ft 465 kts 166°
2026-04-19 10:25 33.27320 98.74678 35779 ft 464 kts 166°
2026-04-19 10:26 33.21817 98.76767 35787 ft 465 kts 166°
2026-04-19 10:26 33.16328 98.78850 35776 ft 465 kts 166°
2026-04-19 10:27 33.10905 98.80904 35773 ft 466 kts 166°
2026-04-19 10:27 33.05493 98.82949 35769 ft 466 kts 165°
2026-04-19 10:28 33.00029 98.85012 35762 ft 465 kts 165°
2026-04-19 10:28 32.94581 98.87067 35763 ft 466 kts 165°
2026-04-19 10:29 32.89119 98.89124 35758 ft 465 kts 165°
2026-04-19 10:29 32.83673 98.91170 35745 ft 465 kts 165°
2026-04-19 10:30 32.78190 98.93227 35743 ft 466 kts 165°
2026-04-19 10:30 32.72670 98.95297 35762 ft 467 kts 165°
2026-04-19 10:31 32.67227 98.97337 35766 ft 466 kts 165°
2026-04-19 10:31 32.61932 99.00016 35769 ft 472 kts 151°
2026-04-19 10:32 32.59598 99.02022 35768 ft 476 kts 140°
2026-04-19 10:32 32.57577 99.04455 35762 ft 477 kts 132°
2026-04-19 10:32 32.54012 99.09892 35744 ft 481 kts 127°
2026-04-19 10:33 32.50676 99.15509 35757 ft 480 kts 126°
2026-04-19 10:33 32.47371 99.21196 35760 ft 482 kts 126°
2026-04-19 10:34 32.44036 99.26900 35746 ft 482 kts 126°
2026-04-19 10:34 32.40718 99.32517 35737 ft 484 kts 126°
2026-04-19 10:35 32.37372 99.38135 35740 ft 485 kts 126°
2026-04-19 10:35 32.33992 99.43779 35737 ft 486 kts 127°
2026-04-19 10:36 32.30600 99.49424 35741 ft 487 kts 127°
2026-04-19 10:36 32.27182 99.55100 35738 ft 487 kts 127°
2026-04-19 10:37 32.23794 99.60713 35719 ft 488 kts 126°
2026-04-19 10:37 32.20344 99.66423 35702 ft 490 kts 127°
2026-04-19 10:38 32.16911 99.72098 35711 ft 493 kts 127°
2026-04-19 10:38 32.13413 99.77870 35700 ft 493 kts 127°
2026-04-19 10:39 32.09917 99.83635 35676 ft 495 kts 127°
2026-04-19 10:39 32.06325 99.89536 35683 ft 495 kts 127°
2026-04-19 10:40 32.02207 99.95104 35667 ft 498 kts 142°
2026-04-19 10:40 31.99695 99.97134 35679 ft 491 kts 154°
2026-04-19 10:40 31.96984 99.98538 35690 ft 486 kts 165°
2026-04-19 10:41 31.91133 99.99927 35696 ft 479 kts 178°
2026-04-19 10:41 31.85353 100.00272 35709 ft 472 kts 183°
2026-04-19 10:42 31.79649 100.00254 35715 ft 473 kts 185°
2026-04-19 10:42 31.73891 100.00161 35727 ft 469 kts 185°
2026-04-19 10:43 31.68115 100.00082 35736 ft 472 kts 185°
2026-04-19 10:43 31.62311 100.00034 35726 ft 471 kts 184°
2026-04-19 10:44 31.56554 100.00011 35720 ft 471 kts 184°
2026-04-19 10:44 31.50754 100.00001 35748 ft 471 kts 183°
2026-04-19 10:45 31.44924 99.99998 35748 ft 469 kts 184°
2026-04-19 10:45 31.39185 99.99997 35763 ft 468 kts 183°
2026-04-19 10:46 31.33511 99.99998 35769 ft 468 kts 183°
2026-04-19 10:46 31.27798 99.99997 35794 ft 468 kts 183°
2026-04-19 10:47 31.22083 99.99997 35790 ft 468 kts 182°
2026-04-19 10:47 31.16387 99.99998 35809 ft 466 kts 183°
2026-04-19 10:48 31.10777 99.99999 35816 ft 466 kts 182°
2026-04-19 10:48 31.05125 100.00001 35818 ft 464 kts 182°
2026-04-19 10:49 30.99490 100.00002 35831 ft 465 kts 182°
2026-04-19 10:49 30.93774 100.00002 35823 ft 464 kts 182°
2026-04-19 10:50 30.88071 100.00003 35807 ft 465 kts 182°
2026-04-19 10:50 30.82412 100.00004 35797 ft 465 kts 182°
2026-04-19 10:51 30.76671 100.00003 35792 ft 465 kts 182°
2026-04-19 10:51 30.70997 100.00003 35796 ft 465 kts 182°
2026-04-19 10:52 30.65397 100.00002 35810 ft 466 kts 183°
2026-04-19 10:52 30.59771 100.00002 35829 ft 466 kts 182°
2026-04-19 10:53 30.54121 100.00000 35839 ft 465 kts 183°
2026-04-19 10:53 30.48447 99.99998 35845 ft 465 kts 183°
2026-04-19 10:54 30.42721 99.99998 35845 ft 466 kts 183°
2026-04-19 10:54 30.37061 100.00000 35840 ft 464 kts 183°
2026-04-19 10:55 30.31356 100.00000 35833 ft 466 kts 183°
2026-04-19 10:55 30.25612 100.00002 35835 ft 466 kts 183°
2026-04-19 10:56 30.19877 100.00002 35849 ft 465 kts 183°
2026-04-19 10:56 30.14159 100.00002 35864 ft 465 kts 183°
2026-04-19 10:57 30.08440 100.00002 35876 ft 464 kts 183°
2026-04-19 10:57 30.02707 100.00001 35862 ft 465 kts 183°
2026-04-19 10:58 29.96951 100.00001 35868 ft 464 kts 183°
2026-04-19 10:58 29.91161 100.00001 35856 ft 467 kts 183°
2026-04-19 10:59 29.85384 100.00001 35854 ft 467 kts 183°
2026-04-19 10:59 29.80550 100.00000 35842 ft 469 kts 183°
2026-04-19 11:00 29.74661 100.00001 35853 ft 469 kts 183°
2026-04-19 11:00 29.68882 99.99999 35837 ft 469 kts 182°
2026-04-19 11:01 29.63050 99.99998 35835 ft 470 kts 182°
2026-04-19 11:01 29.57181 99.99999 35825 ft 473 kts 182°
2026-04-19 11:02 29.51382 99.99999 35826 ft 472 kts 182°
2026-04-19 11:02 29.45674 100.00001 35809 ft 471 kts 182°
2026-04-19 11:03 29.39933 100.00000 35811 ft 474 kts 182°
2026-04-19 11:03 29.34168 100.00001 35804 ft 475 kts 182°
2026-04-19 11:04 29.28422 100.00002 35809 ft 474 kts 182°
2026-04-19 11:04 29.22682 100.00002 35820 ft 476 kts 181°
2026-04-19 11:05 29.17022 100.00003 35809 ft 473 kts 181°
2026-04-19 11:05 29.11261 100.00005 35802 ft 476 kts 181°
2026-04-19 11:06 29.05393 100.00004 35802 ft 476 kts 181°
2026-04-19 11:06 28.99509 100.00003 35801 ft 475 kts 181°
2026-04-19 11:07 28.93601 100.00002 35802 ft 476 kts 182°
2026-04-19 11:07 28.87685 100.00002 35808 ft 474 kts 182°
2026-04-19 11:08 28.81824 100.00000 35789 ft 477 kts 182°
2026-04-19 11:08 28.75968 99.99998 35792 ft 476 kts 182°
2026-04-19 11:09 28.70103 99.99999 35787 ft 479 kts 182°
2026-04-19 11:09 28.64250 99.99999 35776 ft 479 kts 182°
2026-04-19 11:10 28.58411 100.00001 35762 ft 479 kts 182°
2026-04-19 11:10 28.52531 100.00002 35748 ft 481 kts 182°
2026-04-19 11:11 28.46584 100.00002 35735 ft 478 kts 182°
2026-04-19 11:11 28.40615 100.00001 35729 ft 479 kts 182°
2026-04-19 11:12 28.34621 100.00001 35733 ft 479 kts 183°
2026-04-19 11:12 28.28687 100.00000 35726 ft 479 kts 183°
2026-04-19 11:13 28.22703 100.00000 35723 ft 479 kts 183°
2026-04-19 11:13 28.16733 100.00001 35707 ft 478 kts 184°
2026-04-19 11:14 28.10680 100.00001 35695 ft 478 kts 184°
2026-04-19 11:14 28.04799 100.00002 35680 ft 477 kts 184°
2026-04-19 11:15 27.98950 100.00000 35649 ft 478 kts 184°
2026-04-19 11:15 27.93032 99.99999 35653 ft 477 kts 184°
2026-04-19 11:16 27.87164 99.99999 35645 ft 477 kts 184°
2026-04-19 11:16 27.81333 100.00000 35652 ft 477 kts 184°
2026-04-19 11:17 27.75429 100.00001 35665 ft 476 kts 184°
2026-04-19 11:17 27.69513 100.00002 35631 ft 478 kts 185°
2026-04-19 11:18 27.63408 100.00001 35618 ft 479 kts 184°
2026-04-19 11:18 27.57498 100.00002 35607 ft 476 kts 185°
2026-04-19 11:19 27.51607 100.00008 35603 ft 479 kts 184°
2026-04-19 11:19 27.45676 100.00781 35580 ft 486 kts 168°
2026-04-19 11:20 27.42795 100.02010 35577 ft 494 kts 156°
2026-04-19 11:20 27.40097 100.03839 35575 ft 498 kts 147°
2026-04-19 11:20 27.34994 100.08260 35532 ft 500 kts 143°
2026-04-19 11:21 27.30008 100.12965 35517 ft 499 kts 141°
2026-04-19 11:22 27.23014 100.19641 35474 ft 501 kts 142°
2026-04-19 11:22 27.18372 100.24019 35473 ft 499 kts 142°
2026-04-19 11:23 27.13672 100.28410 35464 ft 500 kts 142°
2026-04-19 11:23 27.08874 100.32870 35446 ft 500 kts 142°
2026-04-19 11:24 27.04116 100.37280 35454 ft 501 kts 142°
2026-04-19 11:24 26.99391 100.41652 35447 ft 502 kts 142°
2026-04-19 11:25 26.94618 100.46064 35452 ft 501 kts 142°
2026-04-19 11:25 26.89882 100.50435 35451 ft 499 kts 142°
2026-04-19 11:26 26.85220 100.54733 35446 ft 502 kts 142°
2026-04-19 11:26 26.80450 100.59126 35435 ft 501 kts 142°
2026-04-19 11:27 26.75707 100.63493 35414 ft 494 kts 142°
2026-04-19 11:27 26.71028 100.67952 35396 ft 499 kts 137°
2026-04-19 11:28 26.67393 100.73351 35373 ft 499 kts 117°
2026-04-19 11:28 26.66243 100.76529 35372 ft 501 kts 106°
2026-04-19 11:28 26.65506 100.79786 35339 ft 496 kts 101°
2026-04-19 11:28 26.64943 100.83051 34981 ft 491 kts 98°
2026-04-19 11:29 26.64478 100.86302 34364 ft 491 kts 97°
2026-04-19 11:29 26.64071 100.89574 33712 ft 491 kts 97°
2026-04-19 11:29 26.63684 100.92932 32976 ft 493 kts 96°
2026-04-19 11:29 26.63310 100.96262 32264 ft 496 kts 96°
2026-04-19 11:30 26.62937 100.99571 31493 ft 499 kts 96°
2026-04-19 11:30 26.62551 101.02936 30677 ft 502 kts 96°
2026-04-19 11:30 26.62148 101.06356 29951 ft 502 kts 96°
2026-04-19 11:30 26.61728 101.09840 29696 ft 491 kts 96°
2026-04-19 11:31 26.61320 101.13163 29182 ft 487 kts 96°
2026-04-19 11:31 26.60916 101.16409 28676 ft 483 kts 96°
2026-04-19 11:31 26.60511 101.19633 28095 ft 481 kts 96°
2026-04-19 11:31 26.60105 101.22832 27613 ft 476 kts 96°
2026-04-19 11:32 26.59687 101.26109 27025 ft 472 kts 96°
2026-04-19 11:32 26.59263 101.29370 26134 ft 464 kts 97°
2026-04-19 11:32 26.58825 101.32695 25112 ft 459 kts 97°
2026-04-19 11:32 26.58421 101.35737 24208 ft 453 kts 97°
2026-04-19 11:33 26.57992 101.38955 23272 ft 447 kts 97°
2026-04-19 11:33 26.57564 101.42150 22645 ft 443 kts 97°
2026-04-19 11:33 26.57144 101.45289 22058 ft 441 kts 97°
2026-04-19 11:33 26.56744 101.48272 21562 ft 437 kts 97°
2026-04-19 11:34 26.56349 101.51220 21003 ft 435 kts 97°
2026-04-19 11:34 26.55958 101.54131 20683 ft 427 kts 97°
2026-04-19 11:34 26.55578 101.56963 20216 ft 423 kts 97°
2026-04-19 11:34 26.55167 101.60024 19656 ft 419 kts 97°
2026-04-19 11:35 26.54753 101.63103 18754 ft 413 kts 97°
2026-04-19 11:35 26.54379 101.65887 18201 ft 407 kts 98°
2026-04-19 11:35 26.54009 101.68639 17578 ft 407 kts 98°
2026-04-19 11:35 26.53639 101.71381 17178 ft 401 kts 98°
2026-04-19 11:36 26.53270 101.74115 16645 ft 398 kts 98°
2026-04-19 11:36 26.52972 101.76778 16138 ft 396 kts 95°
2026-04-19 11:36 26.52964 101.79671 15656 ft 391 kts 84°
2026-04-19 11:36 26.53462 101.82321 15146 ft 388 kts 72°
2026-04-19 11:37 26.54313 101.84850 14669 ft 385 kts 67°
2026-04-19 11:37 26.55276 101.87295 14193 ft 382 kts 65°
2026-04-19 11:37 26.56283 101.89682 13725 ft 378 kts 63°
2026-04-19 11:37 26.57574 101.91887 13261 ft 373 kts 50°
2026-04-19 11:38 26.59174 101.93691 13116 ft 359 kts 39°
2026-04-19 11:38 26.61071 101.95035 12963 ft 345 kts 25°
2026-04-19 11:38 26.63031 101.95958 12855 ft 332 kts 19°
2026-04-19 11:38 26.64970 101.96729 12716 ft 319 kts 18°
2026-04-19 11:39 26.66870 101.97450 12396 ft 307 kts 18°
2026-04-19 11:39 26.68681 101.98153 12113 ft 295 kts 19°
2026-04-19 11:39 26.70444 101.98729 11833 ft 284 kts 11°
2026-04-19 11:39 26.72197 101.98922 11721 ft 271 kts 353°
2026-04-19 11:40 26.73777 101.98376 11540 ft 261 kts 326°
2026-04-19 11:40 26.74989 101.97141 11302 ft 254 kts 303°
2026-04-19 11:40 26.75776 101.95490 10982 ft 253 kts 290°
2026-04-19 11:40 26.76329 101.93752 10661 ft 253 kts 282°
2026-04-19 11:41 26.76517 101.91981 10372 ft 249 kts 261°
2026-04-19 11:41 26.75987 101.90310 10097 ft 242 kts 232°
2026-04-19 11:41 26.74879 101.89101 10093 ft 236 kts 213°
2026-04-19 11:41 26.73553 101.88248 9973 ft 241 kts 203°
2026-04-19 11:42 26.72086 101.87595 9800 ft 238 kts 198°
2026-04-19 11:42 26.70631 101.87017 9577 ft 236 kts 198°
2026-04-19 11:42 26.69117 101.86407 9301 ft 236 kts 199°
2026-04-19 11:42 26.67622 101.85778 9043 ft 235 kts 199°
2026-04-19 11:43 26.66121 101.85129 8831 ft 229 kts 200°
2026-04-19 11:43 26.64633 101.84480 8302 ft 238 kts 200°
2026-04-19 11:43 26.63081 101.83804 7708 ft 241 kts 199°
2026-04-19 11:43 26.61541 101.83135 7354 ft 231 kts 199°
2026-04-19 11:44 26.60141 101.82522 7257 ft 201 kts 200°
2026-04-19 11:44 26.58922 101.81982 7156 ft 172 kts 199°
2026-04-19 11:44 26.57890 101.81541 6973 ft 159 kts 198°
2026-04-19 11:44 26.56957 101.81136 6780 ft 155 kts 199°
2026-04-19 11:45 26.56039 101.80739 6590 ft 155 kts 200°
2026-04-19 11:45 26.55124 101.80352 6413 ft 149 kts 200°
2026-04-19 11:45 26.54264 101.79971 6381 ft 119 kts 202°
2026-04-19 11:45 26.53649 101.79692 6376 ft 73 kts 202°
2026-04-19 11:46 26.53200 101.79509 6372 ft 72 kts 200°
2026-04-19 11:46 26.52871 101.79417 6370 ft 28 kts 242°
2026-04-19 11:46 26.52885 101.79371 6369 ft 2 kts 57°
2026-04-19 11:46 26.52924 101.79398 6370 ft 17 kts 21°
2026-04-19 11:47 26.53130 101.79484 6371 ft 45 kts 24°
2026-04-19 11:47 26.53439 101.79614 6374 ft 47 kts 24°
2026-04-19 11:47 26.53653 101.79594 6375 ft 26 kts 297°
2026-04-19 11:47 26.53698 101.79488 6374 ft 8 kts 292°
2026-04-19 11:48 26.53704 101.79469 6374 ft 0 kts 291°
2026-04-19 11:48 26.53708 101.79459 6374 ft 0 kts 291°